Location: Newark
(47.4333°N, 19.2500°E)
Time: 23:04:22
(UTC+00:00)

X-37B - Visible Passes

Search period start: 05 March 2021 00:00
Search period end: 15 March 2021 00:00
Orbit: 383 x 391 km, 45.0° (Epoch: 27 February)

Date Brightness Start Highest point End Pass type
(mag) Time Alt. Az. Time Alt. Az. Time Alt. Az.
11 Mar 2.9 17:45:00 10° SSE 17:45:53 11° SE 17:46:03 11° SE visible
12 Mar 2.1 18:20:59 10° SW 18:23:05 24° S 18:23:05 24° S visible
13 Mar 2.5 17:23:18 10° SSW 17:25:30 17° SSE 17:27:40 10° ESE visible
13 Mar 2.7 18:58:37 10° WSW 18:59:58 22° SW 18:59:58 22° SW visible
14 Mar 1.4 18:00:28 10° SW 18:03:25 35° SSE 18:04:28 27° ESE visible
14 Mar 3.9 19:36:41 10° W 19:36:46 11° W 19:36:46 11° W visible
